sat.trackr.live / text

‹ back to catalog

LPNTSAT-002 (IOD-2)

NORAD 68409 · 2026-065B

PAYLOAD ACTIVE UNKNOWN

§ Identity

Operator
Country
ESA
Launch date
2026-03-28
Launch site
RLLB
Launch vehicle
Mass (kg)
RCS (m²)

External: N2YO · Heavens-Above · Gunter

§ Orbital elements

Epoch: 2026-05-24T22:32:04.066944Z

Period
94.81 min
Inclination
97.4040°
Eccentricity
0.0015868
Mean motion
15.18886587 rev/d
Perigee alt
498.3 km
Apogee alt
520.1 km
Semi-major
6,887.3 km
B*
3.1760e-4
RAAN
25.9480°
Arg perigee
81.8284°
Mean anomaly
278.4750°
Rev number
871

§ Raw data

LPNTSAT-002 (IOD-2)1 68409U 26065B   26144.93893596  .00006579  00000+0  31760-3 0  99912 68409  97.4040  25.9480 0015868  81.8284 278.4750 15.18886587  8716

JSON: /api/v1/satellites/68409 · /tle

For live sub-satellite position, see the globe view (requires WebGL).

§ Visibility from observer

Set your observer location to see the next 7 days of passes ≥ 10°. The values pass through the URL so the page stays shareable.

No JS? Fill the form by hand. The geolocation button needs JavaScript.

§ Radio — SatNOGS DB

ModeDescriptionDownlinkUplink
BPSK S-band telemetry 2.222 GHz

1 transmitter · refreshed weekly from db.satnogs.org